| time (UTC) | temp F | wind direction | speed knots | gust knots | rain 1hr in | rain 24hr in | rain mn in | humidity % | barometer mb |
| 20260504035424 | 60 | 315 | 0.9 | 2.6 | 0.00 | 0.00 | 0.00 | 68 | 1012.5 |
| 20260504034524 | 60 | 305 | 0.9 | 2.6 | 0.00 | 0.00 | 0.00 | 67 | 1012.4 |
| 20260504033624 | 60 | 289 | 0.9 | 2.6 | 0.00 | 0.00 | 0.00 | 66 | 1012.3 |
| 20260504032724 | 61 | 307 | 1.7 | 4.3 | 0.00 | 0.00 | 0.00 | 66 | 1012.3 |
| 20260504031824 | 61 | 290 | 1.7 | 3.5 | 0.00 | 0.00 | 0.00 | 65 | 1012.2 |
| 20260504030924 | 62 | 280 | 1.7 | 6.1 | 0.00 | 0.00 | 0.00 | 65 | 1012.1 |
| 20260504030024 | 62 | 276 | 1.7 | 7.0 | 0.00 | 0.00 | 0.00 | 64 | 1012.0 |
| 20260504025403 | 62 | 289 | 1.7 | 7.0 | 0.00 | 0.00 | 0.00 | 63 | 1011.9 |
| 20260504024503 | 63 | 312 | 1.7 | 5.2 | 0.00 | 0.00 | 0.00 | 62 | 1011.6 |
| 20260504023603 | 64 | 321 | 1.7 | 6.1 | 0.00 | 0.00 | 0.00 | 61 | 1011.3 |
| 20260504022703 | 65 | 297 | 1.7 | 6.1 | 0.00 | 0.00 | 0.00 | 60 | 1011.3 |
| 20260504021803 | 65 | 284 | 2.6 | 7.8 | 0.00 | 0.00 | 0.00 | 59 | 1011.3 |
| 20260504020924 | 66 | 305 | 2.6 | 7.0 | 0.00 | 0.00 | 0.00 | 58 | 1011.1 |
| 20260504020003 | 66 | 287 | 2.6 | 9.6 | 0.00 | 0.00 | 0.00 | 58 | 1011.0 |
| 20260504015403 | 67 | 294 | 2.6 | 8.7 | 0.00 | 0.00 | 0.00 | 58 | 1011.0 |
| 20260504014503 | 67 | 301 | 2.6 | 8.7 | 0.00 | 0.00 | 0.00 | 58 | 1011.0 |
| 20260504013603 | 67 | 286 | 2.6 | 9.6 | 0.00 | 0.00 | 0.00 | 58 | 1011.1 |
| 20260504012703 | 67 | 271 | 2.6 | 9.6 | 0.00 | 0.00 | 0.00 | 57 | 1011.0 |
| 20260504011803 | 67 | 274 | 3.5 | 8.7 | 0.00 | 0.00 | 0.00 | 59 | 1011.0 |
| 20260504010924 | 67 | 290 | 3.5 | 8.7 | 0.00 | 0.00 | 0.00 | 57 | 1011.1 |
| 20260504010003 | 68 | 271 | 3.5 | 8.7 | 0.00 | 0.00 | 0.00 | 58 | 1011.2 |
| 20260504005424 | 68 | 279 | 3.5 | 9.6 | 0.00 | 0.00 | 0.00 | 57 | 1011.0 |
| 20260504004503 | 68 | 276 | 2.6 | 10.4 | 0.00 | 0.00 | 0.00 | 57 | 1011.0 |
| 20260504003603 | 68 | 275 | 3.5 | 10.4 | 0.00 | 0.00 | 0.00 | 57 | 1011.0 |
| 20260504002703 | 69 | 265 | 3.5 | 10.4 | 0.00 | 0.00 | 0.00 | 57 | 1010.8 |
| 20260504001803 | 70 | 271 | 3.5 | 10.4 | 0.00 | 0.00 | 0.00 | 54 | 1010.9 |
| 20260504000903 | 71 | 264 | 2.6 | 8.7 | 0.00 | 0.00 | 0.00 | 54 | 1010.8 |
| 20260504000003 | 72 | 271 | 2.6 | 7.8 | 0.00 | 0.00 | 0.00 | 53 | 1010.8 |
| 20260503235403 | 72 | 307 | 2.6 | 9.6 | 0.00 | 0.00 | 0.00 | 53 | 1010.7 |
| 20260503234503 | 72 | 282 | 2.6 | 9.6 | 0.00 | 0.00 | 0.00 | 54 | 1010.7 |
| 20260503233603 | 72 | 309 | 2.6 | 9.6 | 0.00 | 0.00 | 0.00 | 54 | 1010.7 |
| 20260503232703 | 72 | 277 | 2.6 | 7.0 | 0.00 | 0.00 | 0.00 | 53 | 1010.7 |
| 20260503231803 | 72 | 290 | 2.6 | 9.6 | 0.00 | 0.00 | 0.00 | 53 | 1010.8 |
| 20260503230903 | 72 | 290 | 2.6 | 10.4 | 0.00 | 0.00 | 0.00 | 52 | 1010.9 |
| 20260503230003 | 72 | 325 | 2.6 | 9.6 | 0.00 | 0.00 | 0.00 | 54 | 1010.9 |
| 20260503225403 | 72 | 312 | 2.6 | 9.6 | 0.00 | 0.00 | 0.00 | 52 | 1010.9 |
| 20260503224503 | 72 | 285 | 2.6 | 8.7 | 0.00 | 0.00 | 0.00 | 53 | 1010.9 |
| 20260503223606 | 72 | 285 | 2.6 | 7.8 | 0.00 | 0.00 | 0.00 | 54 | 1011.0 |
| 20260503222703 | 71 | 293 | 2.6 | 9.6 | 0.00 | 0.00 | 0.00 | 55 | 1011.1 |
| 20260503221803 | 70 | 265 | 2.6 | 7.8 | 0.00 | 0.00 | 0.00 | 56 | 1011.0 |
| 20260503220903 | 71 | 296 | 2.6 | 9.6 | 0.00 | 0.00 | 0.00 | 53 | 1011.1 |
| 20260503220003 | 71 | 309 | 2.6 | 8.7 | 0.00 | 0.00 | 0.00 | 54 | 1011.1 |
| 20260503215406 | 72 | 311 | 2.6 | 13.0 | 0.00 | 0.00 | 0.00 | 52 | 1011.1 |
| 20260503214503 | 71 | 302 | 2.6 | 7.0 | 0.00 | 0.00 | 0.00 | 56 | 1011.3 |
| 20260503213603 | 71 | 297 | 2.6 | 7.0 | 0.00 | 0.00 | 0.00 | 53 | 1011.4 |
| 20260503212703 | 71 | 327 | 2.6 | 7.8 | 0.00 | 0.00 | 0.00 | 55 | 1011.5 |
| 20260503211803 | 71 | 337 | 2.6 | 9.6 | 0.00 | 0.00 | 0.00 | 54 | 1011.4 |
| 20260503210924 | 72 | 284 | 1.7 | 7.8 | 0.00 | 0.00 | 0.00 | 54 | 1011.5 |
| 20260503210003 | 71 | 341 | 3.5 | 11.3 | 0.00 | 0.00 | 0.00 | 56 | 1011.4 |
| 20260503205403 | 71 | 308 | 2.6 | 7.0 | 0.00 | 0.00 | 0.00 | 55 | 1011.4 |
| 20260503204503 | 71 | 312 | 2.6 | 8.7 | 0.00 | 0.00 | 0.00 | 56 | 1011.4 |
| 20260503203603 | 71 | 324 | 2.6 | 9.6 | 0.00 | 0.00 | 0.00 | 56 | 1011.4 |
| 20260503202703 | 70 | 311 | 2.6 | 7.0 | 0.00 | 0.00 | 0.00 | 57 | 1011.4 |
| 20260503201803 | 70 | 290 | 2.6 | 7.0 | 0.00 | 0.00 | 0.00 | 57 | 1011.4 |
| 20260503200903 | 70 | 318 | 3.5 | 10.4 | 0.00 | 0.00 | 0.00 | 56 | 1011.4 |
| 20260503200003 | 69 | 275 | 1.7 | 7.8 | 0.00 | 0.00 | 0.00 | 58 | 1011.5 |
| 20260503195403 | 69 | 274 | 1.7 | 4.3 | 0.00 | 0.00 | 0.00 | 56 | 1011.6 |
| 20260503194503 | 70 | 284 | 1.7 | 7.8 | 0.00 | 0.00 | 0.00 | 55 | 1011.8 |
| 20260503193603 | 70 | 280 | 1.7 | 6.1 | 0.00 | 0.00 | 0.00 | 57 | 1011.8 |
| 20260503192703 | 70 | 278 | 1.7 | 7.0 | 0.00 | 0.00 | 0.00 | 56 | 1011.8 |
| 20260503191803 | 69 | 320 | 1.7 | 4.3 | 0.00 | 0.00 | 0.00 | 58 | 1011.7 |
| 20260503190903 | 69 | 293 | 1.7 | 7.0 | 0.00 | 0.00 | 0.00 | 56 | 1011.9 |
| 20260503190003 | 69 | 281 | 1.7 | 4.3 | 0.00 | 0.00 | 0.00 | 58 | 1011.8 |
| 20260503185406 | 69 | 287 | 2.6 | 10.4 | 0.00 | 0.00 | 0.00 | 56 | 1011.8 |
| 20260503184503 | 69 | 282 | 1.7 | 7.0 | 0.00 | 0.00 | 0.00 | 57 | 1011.8 |
| 20260503183603 | 69 | 334 | 2.6 | 12.2 | 0.00 | 0.00 | 0.00 | 57 | 1011.7 |
| 20260503182703 | 68 | 286 | 2.6 | 12.2 | 0.00 | 0.00 | 0.00 | 58 | 1011.8 |
| 20260503181803 | 68 | 269 | 1.7 | 8.7 | 0.00 | 0.00 | 0.00 | 58 | 1011.7 |
| 20260503180904 | 68 | 271 | 1.7 | 7.0 | 0.00 | 0.00 | 0.00 | 61 | 1011.9 |
| 20260503180003 | 67 | 267 | 1.7 | 7.8 | 0.00 | 0.00 | 0.00 | 61 | 1011.8 |
| 20260503175403 | 67 | 266 | 1.7 | 8.7 | 0.00 | 0.00 | 0.00 | 61 | 1011.8 |
| 20260503174503 | 66 | 265 | 1.7 | 6.1 | 0.00 | 0.00 | 0.00 | 62 | 1011.8 |
| 20260503173603 | 66 | 269 | 2.6 | 9.6 | 0.00 | 0.00 | 0.00 | 61 | 1011.8 |
| 20260503172703 | 66 | 267 | 1.7 | 6.1 | 0.00 | 0.00 | 0.00 | 62 | 1011.6 |
| 20260503171803 | 66 | 298 | 2.6 | 5.2 | 0.00 | 0.00 | 0.00 | 61 | 1011.8 |
| 20260503170903 | 66 | 316 | 1.7 | 7.0 | 0.00 | 0.00 | 0.00 | 64 | 1011.7 |
| 20260503150903 | 57 | 228 | 0.0 | 1.7 | 0.00 | 0.00 | 0.00 | 82 | 1011.2 |
| 20260503130903 | 55 | 296 | 0.9 | 2.6 | 0.00 | 0.00 | 0.00 | 82 | 1009.9 |
| 20260503080903 | 56 | 340 | 0.9 | 2.6 | 0.00 | 0.00 | 0.00 | 82 | 1010.0 |
| 20260503072703 | 56 | 309 | 1.7 | 3.5 | 0.00 | 0.00 | 0.00 | 82 | 1010.0 |
| 20260503071803 | 56 | 325 | 1.7 | 2.6 | 0.00 | 0.00 | 0.00 | 81 | 1010.1 |
| 20260503070903 | 56 | 334 | 1.7 | 2.6 | 0.00 | 0.00 | 0.00 | 81 | 1010.1 |
| 20260503054524 | 57 | 317 | 1.7 | 5.2 | 0.00 | 0.00 | 0.00 | 78 | 1010.4 |
| 20260503053624 | 57 | 324 | 1.7 | 7.8 | 0.00 | 0.00 | 0.00 | 78 | 1010.3 |
| 20260503052703 | 57 | 311 | 1.7 | 7.0 | 0.00 | 0.00 | 0.00 | 78 | 1010.4 |
| 20260503051803 | 57 | 310 | 1.7 | 6.1 | 0.00 | 0.00 | 0.00 | 77 | 1010.2 |
| 20260503050903 | 58 | 314 | 1.7 | 4.3 | 0.00 | 0.00 | 0.00 | 77 | 1010.3 |
| 20260503050003 | 58 | 320 | 1.7 | 7.0 | 0.00 | 0.00 | 0.00 | 76 | 1010.3 |
| 20260503045403 | 58 | 322 | 1.7 | 7.0 | 0.00 | 0.00 | 0.00 | 76 | 1010.3 |
| 20260503044503 | 58 | 308 | 1.7 | 7.0 | 0.00 | 0.00 | 0.00 | 76 | 1010.2 |
| 20260503043603 | 58 | 313 | 1.7 | 7.0 | 0.00 | 0.00 | 0.00 | 75 | 1010.2 |
| 20260503042703 | 59 | 317 | 2.6 | 9.6 | 0.00 | 0.00 | 0.00 | 74 | 1010.1 |
| 20260503041803 | 59 | 318 | 2.6 | 7.8 | 0.00 | 0.00 | 0.00 | 74 | 1010.1 |
| 20260503040903 | 60 | 320 | 1.7 | 7.0 | 0.00 | 0.00 | 0.00 | 74 | 1010.1 |